THOR ABLESTAR DEB, 230

Orbit data source: Space-Track

THOR ABLESTAR DEB, 230 is space debris in LEO originally from a launch on Thu, 29 Jun 1961 UTC launched from the Air Force Eastern Test Range (AFETR). Debris objects in space refer to the collection of defunct objects orbiting the Earth. Examples of debris include non-operational satellites, rocket bodies, and fragments generated from explosions, collisions, or faulty payload assembly.

Loading next visibility...
Identifier
230, 1961-015BN
Orbit
LEO
Country
Flag of USUS
Related business
Manufacturer
Unknown
Mission
Spacecraft
Bus & Motor
Unknown
Mass
Unknown
Launch date (UTC)
1961-06-29 (65 years ago)
Launch vehicle
Unknown
Launch site
Air Force Eastern Test Range (AFETR)
Object type
Payload
Rocket body
Debris
Shape & HBR
Unknown shape, 0.2 m
Radar Cross Section
Medium (>0.1 m² and <1 m²)

Expand to show TLE details & history
Last TLE update: 13 hours ago

TLE from 13 hours ago
0 THOR ABLESTAR DEB
1 00230U 61015BN  26174.91795074  .00000001  00000-0  54475-4 0  9990
2 00230  66.8840  32.5174 0092142 172.3041 187.9482 13.96808193306698
Epoch: 2026-06-23T22:01Z
TLE epoch observation values (Epoch: 2026-06-23T22:01:50.943Z)
Latitude
-0.00001°
Longitude
149.97251°
Altitude
973.439 km
Speed
7.332 km/s
True Right ascension
02h 10m 04s
True Declination
0° 00' 00"
Sunlit
Object was in daylight at epoch
Visualization orbit readout
Latitude
Unknown
Longitude
Unknown
Altitude
Unknown
Speed
Unknown
Apparent Right ascension
Unknown
Apparent Declination
Unknown
Sunlit
N/A
Visualization observer readout
Local Sidereal Time
21:52:49
Azimuth
Unknown
Elevation
Unknown
Doppler factor
Unknown
Orbital elements
Apogee altitude
970.34 km
Perigee altitude
836.156 km
Semi-major axis
7,281.385 km
Eccentricity
0.00921
Inclination
66.884°
RAAN
32.5174°
Arg. of periapsis
172.3041°
True anomaly
187.80384°
Mean anomaly
187.9482°
Eccentric anomaly
187.87586°
Mean motion
3.49319 °/min
Orbital period
103.06 mins
BSTAR
0.000054475
Loading maneuver chart data...
Computing Atmospheric mass density...

Documentation

Showing up to 5 results
|